CYGFM07 (41890 NORAD) Tracking and Keplerian Element Data

This shows tracking and keplerian element data for the satellite.

Feedback or suggestion? Click here.




ElementValue
Catalog41890
NameCYGFM07
Epoch Orbit8787
Epoch Day198.9212832
Epoch Year2018
RAAN86.2218
Inclination34.9529
Eccentricity0.0014689
Argument of Perigee274.4135
Mean Anonmoly85.4898
Mean Motion15.14651656
Decay Rate2.42E-06
L11 41890U 16078G 18198.92128320 .00000242 00000-0 14490-4 0 9998
L22 41890 34.9529 86.2218 0014689 274.4135 85.4898 15.14651656 87879

Live tracking and technical data element details for CYGFM07 (NORAD 41890). CYGFM07 can be tracked NOW for your location showing map with azimuth and elevation plus other details from your city location.

Track the satellite on the map from your city or location and see movement details for azimuth, elevation, latitude, longitude, range, height, and movement on the map or in text.







IsCatalogInMostPopularTable: catalog: 41890, numindb: 74
Update: records affected: 1



GetName: 41890 CYGFM07

Hit Count: updated at: Thu, 19 Jul 2018 03:46:38 GMT